Fort Indiantown Gap, PA

3:36 AM EDT on March 29, 2017 (GMT -0400)
Muir Army Air Field

Weather History for KMUI - February, 2013

Change the Weather History Date:

Sunday, February 17, 2013

  Actual Average Record
Temperature  
Mean Temperature 24 °F -  
Max Temperature 27 °F 41 °F 59 °F (2011)
Min Temperature 20 °F 26 °F 6 °F (2015)
Degree Days  
Heating Degree Days 42    
Moisture  
Dew Point 7 °F    
Average Humidity 48    
Maximum Humidity 58    
Minimum Humidity 32    
Precipitation  
Precipitation 0.01 in - - ()
Sea Level Pressure  
Sea Level Pressure 29.92 in    
Wind  
Wind Speed 10 mph (WNW)    
Max Wind Speed 21 mph    
Max Gust Speed 40 mph    
Visibility 9 miles    
Events      
Averages and records for this station are not official NWS values.
T = Trace of Precipitation, MM = Missing Value Source: NWS Daily Summary

Daily Weather History Graph

Daily Weather History Graph

Search for Another Location

Airport or City:

Trip Planner

Search our weather history database for the weather conditions in past years. The results will help you decide how hot, cold, wet, or windy it might be!

Date:

Astronomy

Feb. 17, 2013 Rise Set
Actual Time 6:56 AM EST 5:44 PM EST
Civil Twilight 6:29 AM EST 6:12 PM EST
Nautical Twilight 5:57 AM EST 6:43 PM EST
Astronomical Twilight 5:25 AM EST 7:15 PM EST
Moon 10:46 AM EST (2/17) 12:39 AM EST (2/17)
Length of Visible Light 11h 43m
Length of Day
10h 47m
Waxing Crescent, 49% of the Moon is Illuminated
Feb 17
Waxing Crescent
Feb 17
First Quarter
Feb 25
Full
Mar 4
Last Quarter
Mar 11
New

Hourly Weather History & Observations

Time (EST) Temp. Windchill Dew Point Humidity Pressure Visibility Wind Dir Wind Speed Gust Speed Precip Events Conditions
12:55 AM 27.5 °F 19.3 °F 9.5 °F 47% 29.83 in 10.0 mi NNW 8.1 mph - N/A   Clear
1:55 AM 27.1 °F 20.7 °F 6.8 °F 42% 29.84 in 10.0 mi NNW 5.8 mph - N/A   Clear
2:55 AM 25.7 °F 20.1 °F 9.1 °F 50% 29.83 in 10.0 mi Variable 4.6 mph - N/A   Clear
3:55 AM 24.8 °F 19.1 °F 8.8 °F 51% 29.83 in 10.0 mi Variable 4.6 mph - N/A   Clear
4:55 AM 24.3 °F 17.3 °F 10.0 °F 55% 29.84 in 10.0 mi NW 5.8 mph 16.1 mph N/A   Clear
5:55 AM 23.5 °F 15.4 °F 10.6 °F 58% 29.84 in 10.0 mi Variable 6.9 mph - N/A   Clear
6:55 AM 22.6 °F 10.1 °F 9.1 °F 56% 29.85 in 10.0 mi NW 13.8 mph 19.6 mph N/A   Clear
7:55 AM 23.2 °F 10.8 °F 7.7 °F 52% 29.86 in 10.0 mi West 13.8 mph 19.6 mph N/A   Clear
8:55 AM 24.6 °F 13.8 °F 8.4 °F 50% 29.86 in 10.0 mi WNW 11.5 mph 25.3 mph N/A   Clear
9:55 AM 25.9 °F 14.3 °F 8.1 °F 47% 29.88 in 10.0 mi WNW 13.8 mph 19.6 mph N/A   Mostly Cloudy
10:55 AM 26.4 °F 15.0 °F 7.2 °F 44% 29.89 in 10.0 mi NNW 13.8 mph 23.0 mph N/A   Mostly Cloudy
12:48 PM 26.6 °F 16.8 °F 8.6 °F 47% 29.89 in 9.0 mi NW 10.4 mph 28.8 mph N/A   Scattered Clouds
12:55 PM 25.9 °F 15.3 °F 12.0 °F 56% 29.89 in 6.0 mi NW 11.5 mph 20.7 mph 0.00 in   Mostly Cloudy
1:01 PM 26.6 °F 19.1 °F 12.2 °F 55% 29.88 in 9.0 mi Variable 6.9 mph - N/A   Mostly Cloudy
1:12 PM 26.6 °F 14.7 °F 10.4 °F 51% 29.89 in 6.0 mi WNW 15.0 mph 28.8 mph N/A   Mostly Cloudy
1:15 PM 26.6 °F 15.2 °F 12.2 °F 55% 29.88 in 4.0 mi WNW 13.8 mph 28.8 mph N/A   Mostly Cloudy
1:22 PM 26.6 °F 17.5 °F 10.4 °F 51% 29.88 in 5.0 mi WNW 9.2 mph 20.7 mph N/A   Mostly Cloudy
1:25 PM 26.6 °F 19.1 °F 10.4 °F 51% 29.88 in 9.0 mi WNW 6.9 mph 20.7 mph N/A   Mostly Cloudy
1:41 PM 26.6 °F 15.2 °F 10.4 °F 51% 29.89 in 8.0 mi West 13.8 mph 27.6 mph N/A   Mostly Cloudy
1:55 PM 25.2 °F 14.4 °F 12.0 °F 58% 29.90 in 4.0 mi NW 11.5 mph 28.8 mph 0.00 in   Haze
2:07 PM 24.8 °F 14.0 °F 10.4 °F 54% 29.90 in 10.0 mi WNW 11.5 mph 18.4 mph N/A   Mostly Cloudy
2:12 PM 24.8 °F 13.4 °F 10.4 °F 54% 29.90 in 8.0 mi WNW 12.7 mph 28.8 mph N/A   Mostly Cloudy
2:14 PM 24.8 °F 12.4 °F 10.4 °F 54% 29.90 in 7.0 mi NW 15.0 mph 28.8 mph N/A   Mostly Cloudy
2:17 PM 24.8 °F 12.4 °F 10.4 °F 54% 29.90 in 7.0 mi West 15.0 mph 28.8 mph N/A   Mostly Cloudy
2:23 PM 24.8 °F 13.4 °F 10.4 °F 54% 29.91 in 10.0 mi WNW 12.7 mph 23.0 mph N/A   Scattered Clouds
2:55 PM 27.7 °F 16.1 °F 2.8 °F 35% 29.90 in 10.0 mi WNW 15.0 mph 31.1 mph 0.00 in   Partly Cloudy
3:55 PM 27.7 °F 14.5 °F 1.9 °F 33% 29.92 in 10.0 mi West 19.6 mph 34.5 mph 0.01 in   Scattered Clouds
4:55 PM 26.4 °F 15.0 °F -0.2 °F 32% 29.94 in 10.0 mi WNW 13.8 mph 29.9 mph N/A   Clear
5:55 PM 24.8 °F 14.0 °F -0.4 °F 34% 29.99 in 10.0 mi WNW 11.5 mph 32.2 mph N/A   Clear
6:55 PM 23.5 °F 11.3 °F -0.9 °F 35% 30.03 in 10.0 mi West 13.8 mph 40.3 mph N/A   Clear
7:55 PM 22.6 °F 7.5 °F -0.4 °F 37% 30.05 in 10.0 mi West 20.7 mph 35.7 mph N/A   Partly Cloudy
8:55 PM 21.7 °F 10.2 °F 0.3 °F 39% 30.09 in 10.0 mi WNW 11.5 mph 27.6 mph N/A   Partly Cloudy
9:55 PM 20.8 °F 8.4 °F 1.4 °F 43% 30.12 in 10.0 mi WNW 12.7 mph 32.2 mph N/A   Partly Cloudy
10:55 PM 20.5 °F 10.0 °F 2.3 °F 45% 30.14 in 10.0 mi West 9.2 mph 17.3 mph N/A   Partly Cloudy
11:55 PM 20.1 °F 5.9 °F 2.1 °F 46% 30.16 in 10.0 mi West 16.1 mph 34.5 mph N/A   Partly Cloudy